WA6MEM Weather Reports


Display with metric or nautical units.
time (UTC)temp
F
wind
direction
speed
MPH
gust
MPH
rain 1hr
in
rain 24hr
in
rain mn
in
humidity
%
barometer
mb
20260904185514 69 182 3.0 0.0 0.00 0.00 0.01 79 1012.7
20260904185018 69 205 3.0 0.0 0.00 0.00 0.01 80 1012.7
20260904184514 69 229 3.0 0.0 0.00 0.00 0.01 79 1012.7
20260904184013 69 211 3.0 0.0 0.00 0.00 0.01 80 1012.7
20260904183513 69 210 4.0 0.0 0.00 0.00 0.01 79 1012.7
20260904183013 69 195 3.0 0.0 0.00 0.00 0.01 79 1012.7
20260904182512 70 111 3.0 0.0 0.00 0.00 0.01 80 1012.6
20260904182012 70 162 3.0 0.0 0.00 0.00 0.01 79 1012.6
20260904181512 70 104 3.0 0.0 0.00 0.00 0.01 79 1012.6
20260904181012 70 142 2.0 0.0 0.00 0.00 0.01 80 1012.6
20260904180513 70 197 2.0 0.0 0.00 0.00 0.01 81 1012.6
20260904180010 69 175 2.0 0.0 0.00 0.00 0.01 81 1012.6
20260904175510 69 181 2.0 0.0 0.00 0.00 0.01 81 1012.6
20260904175011 69 163 2.0 0.0 0.00 0.00 0.01 83 1012.6
20260904174508 68 132 3.0 0.0 0.00 0.00 0.01 84 1012.6
20260904174007 68 171 3.0 0.0 0.00 0.00 0.01 83 1012.6
20260904173505 68 277 2.0 0.0 0.00 0.00 0.01 83 1012.6
20260904173005 67 181 2.0 0.0 0.00 0.00 0.01 82 1012.6
20260904172505 67 178 2.0 0.0 0.00 0.00 0.01 82 1012.5
20260904172005 67 218 2.0 0.0 0.00 0.00 0.01 85 1012.5
20260904171502 67 217 1.0 0.0 0.00 0.00 0.01 86 1012.5
20260904171002 66 134 1.0 0.0 0.00 0.00 0.01 86 1012.5
20260904170502 66 153 2.0 0.0 0.00 0.00 0.01 86 1012.5
20260904170001 66 117 2.0 0.0 0.00 0.00 0.01 85 1012.5
20260904165600 66 125 2.0 0.0 0.00 0.00 0.01 87 1012.2
20260904165100 66 175 2.0 0.0 0.00 0.00 0.01 87 1012.2
20260904164604 65 195 2.0 0.0 0.00 0.00 0.01 87 1012.2
20260904164057 65 84 2.0 0.0 0.00 0.00 0.01 86 1012.1
20260904163557 65 188 2.0 0.0 0.00 0.00 0.01 87 1012.1
20260904163106 65 70 1.0 0.0 0.00 0.00 0.01 88 1012.1
20260904162556 65 33 1.0 0.0 0.00 0.00 0.01 88 1012.1
20260904162055 65 111 2.0 0.0 0.00 0.00 0.01 87 1012.1
20260904161555 65 134 3.0 0.0 0.00 0.00 0.01 88 1012.1
20260904161055 65 69 2.0 0.0 0.00 0.00 0.01 89 1011.8
20260904160553 64 109 2.0 0.0 0.00 0.00 0.01 90 1011.8
20260904160104 64 94 2.0 0.0 0.00 0.00 0.01 92 1011.8
20260904155551 64 101 1.0 0.0 0.00 0.00 0.01 93 1011.8
20260904155051 63 87 1.0 0.0 0.00 0.00 0.01 94 1011.8
20260904154549 63 144 0.0 0.0 0.00 0.00 0.01 96 1011.8
20260904154048 62 88 0.0 0.0 0.00 0.00 0.01 96 1011.9
20260904153547 62 107 1.0 0.0 0.00 0.00 0.01 96 1011.9
20260904153101 61 148 2.0 0.0 0.00 0.00 0.01 95 1011.9
20260904152547 61 142 1.0 0.0 0.00 0.00 0.01 95 1011.8
20260904152046 62 104 0.0 0.0 0.00 0.00 0.01 95 1011.8
20260904151546 62 115 0.0 0.0 0.00 0.00 0.01 96 1011.8
20260904151046 62 136 0.0 0.0 0.00 0.00 0.01 96 1011.8
20260904150550 61 112 0.0 0.0 0.00 0.00 0.01 96 1011.8
20260904150100 61 83 0.0 0.0 0.00 0.00 0.01 96 1011.8
20260904145546 61 85 0.0 0.0 0.00 0.00 0.01 96 1011.7
20260904145048 61 62 0.0 0.0 0.00 0.00 0.01 96 1011.7
20260904144547 62 80 0.0 0.0 0.00 0.00 0.01 96 1011.7
20260904144044 62 153 0.0 0.0 0.00 0.00 0.01 96 1011.4
20260904143544 62 153 0.0 0.0 0.00 0.00 0.01 97 1011.4
20260904143043 62 153 0.0 0.0 0.00 0.00 0.01 97 1011.4
20260904142542 62 153 0.0 0.0 0.00 0.00 0.01 97 1011.2
20260904142041 61 153 0.0 0.0 0.00 0.00 0.01 97 1011.2
20260904141540 61 207 0.0 0.0 0.00 0.00 0.01 97 1011.2
20260904141039 61 207 0.0 0.0 0.00 0.00 0.01 97 1011.2
20260904140542 60 207 0.0 0.0 0.00 0.00 0.01 97 1011.2
20260904140038 60 207 0.0 0.0 0.00 0.00 0.01 96 1011.2
20260904135539 60 207 0.0 0.0 0.00 0.00 0.01 96 1011.1
20260904135038 60 207 0.0 0.0 0.00 0.00 0.01 96 1011.1
20260904134546 60 207 0.0 0.0 0.00 0.00 0.01 97 1011.1
20260904134037 60 207 0.0 0.0 0.00 0.00 0.00 96 1011.0
20260904133537 60 207 0.0 0.0 0.00 0.00 0.00 97 1011.0
20260904133037 60 207 0.0 0.0 0.00 0.00 0.00 97 1011.0
20260904132537 60 207 0.0 0.0 0.00 0.00 0.00 97 1011.0
20260904132039 60 207 0.0 0.0 0.00 0.00 0.00 97 1011.0
20260904131535 60 207 0.0 0.0 0.00 0.00 0.00 97 1011.0
20260904131036 60 207 0.0 0.0 0.00 0.00 0.00 97 1010.8
20260904130538 60 207 0.0 0.0 0.00 0.00 0.00 97 1010.8
20260904130051 60 207 0.0 0.0 0.00 0.00 0.00 96 1010.8
20260904125535 60 207 0.0 0.0 0.00 0.00 0.00 97 1010.6
20260904125036 60 207 0.0 0.0 0.00 0.00 0.00 97 1010.6
20260904124538 60 207 0.0 0.0 0.00 0.00 0.00 97 1010.6
20260904124040 60 207 0.0 0.0 0.00 0.00 0.00 97 1010.6
20260904123536 59 270 0.0 0.0 0.00 0.00 0.00 96 1010.6
20260904123033 59 270 0.0 0.0 0.00 0.00 0.00 96 1010.6
20260904122533 59 270 0.0 0.0 0.00 0.00 0.00 96 1010.6
20260904122033 59 270 0.0 0.0 0.00 0.00 0.00 96 1010.6
20260904121535 59 270 0.0 0.0 0.00 0.00 0.00 96 1010.6
20260904121036 59 270 0.0 0.0 0.00 0.00 0.00 96 1010.5
20260904120532 59 270 0.0 0.0 0.00 0.00 0.00 96 1010.5
20260904120037 59 270 0.0 0.0 0.00 0.00 0.00 96 1010.5
20260904115532 59 270 0.0 0.0 0.00 0.00 0.00 96 1010.5
20260904115032 59 270 0.0 0.0 0.00 0.00 0.00 96 1010.5
20260904114532 59 270 0.0 0.0 0.00 0.00 0.00 96 1010.5
20260904114031 59 270 0.0 0.0 0.00 0.00 0.00 96 1010.5
20260904113531 59 270 0.0 0.0 0.00 0.00 0.00 96 1010.5
20260904113034 59 270 0.0 0.0 0.00 0.00 0.00 96 1010.5
20260904112531 59 270 0.0 0.0 0.00 0.00 0.00 96 1010.5
20260904112029 59 270 0.0 0.0 0.00 0.00 0.00 96 1010.5
20260904111529 59 270 0.0 0.0 0.00 0.00 0.00 96 1010.5
20260904111032 59 270 0.0 0.0 0.00 0.00 0.00 96 1010.5
20260904110530 59 270 0.0 0.0 0.00 0.00 0.00 96 1010.5
20260904110029 59 270 0.0 0.0 0.00 0.00 0.00 96 1010.5
20260904105529 59 270 0.0 0.0 0.00 0.00 0.00 96 1010.6
20260904105029 59 270 0.0 0.0 0.00 0.00 0.00 96 1010.6
20260904104530 59 270 0.0 0.0 0.00 0.00 0.00 96 1010.6
20260904104028 58 270 0.0 0.0 0.00 0.00 0.00 96 1010.5
20260904103527 58 270 0.0 0.0 0.00 0.00 0.00 95 1010.5
20260904103028 58 270 0.0 0.0 0.00 0.00 0.00 96 1010.5
20260904102529 58 270 0.0 0.0 0.00 0.00 0.00 96 1010.5
20260904102028 58 270 0.0 0.0 0.00 0.00 0.00 95 1010.5
20260904101530 58 270 0.0 0.0 0.00 0.00 0.00 95 1010.5
20260904101028 58 270 0.0 0.0 0.00 0.00 0.00 95 1010.5
20260904100530 58 270 0.0 0.0 0.00 0.00 0.00 95 1010.5
20260904100030 58 270 0.0 0.0 0.00 0.00 0.00 95 1010.5
20260904095531 58 270 0.0 0.0 0.00 0.00 0.00 95 1010.5
20260904095026 58 270 0.0 0.0 0.00 0.00 0.00 95 1010.5
20260904094525 59 270 0.0 0.0 0.00 0.00 0.00 95 1010.5
20260904094025 59 270 0.0 0.0 0.00 0.00 0.00 95 1010.6
20260904093525 59 270 0.0 0.0 0.00 0.00 0.00 95 1010.6
20260904093026 59 270 0.0 0.0 0.00 0.00 0.00 95 1010.6
20260904092524 59 270 0.0 0.0 0.00 0.00 0.00 95 1010.6
20260904092026 59 270 0.0 0.0 0.00 0.00 0.00 95 1010.6
20260904091525 58 270 0.0 0.0 0.00 0.00 0.00 95 1010.6
20260904091025 58 270 0.0 0.0 0.00 0.00 0.00 95 1010.6
20260904090524 59 270 0.0 0.0 0.00 0.00 0.00 95 1010.6
20260904090031 59 270 0.0 0.0 0.00 0.00 0.00 94 1010.6
20260904085524 59 270 0.0 0.0 0.00 0.00 0.00 94 1010.5
20260904085025 59 270 0.0 0.0 0.00 0.00 0.00 95 1010.5
20260904084523 59 270 0.0 0.0 0.00 0.00 0.00 95 1010.5
20260904084022 59 270 0.0 0.0 0.00 0.00 0.00 95 1010.6
20260904083522 59 270 0.0 0.0 0.00 0.00 0.00 94 1010.6
20260904083029 60 270 0.0 0.0 0.00 0.00 0.00 95 1010.6
20260904082523 60 270 0.0 0.0 0.00 0.00 0.00 95 1010.6
20260904082021 60 270 0.0 0.0 0.00 0.00 0.00 95 1010.6
20260904081521 60 270 0.0 0.0 0.00 0.00 0.00 95 1010.6
20260904081021 60 270 0.0 0.0 0.00 0.00 0.00 95 1010.7
20260904080521 60 270 0.0 0.0 0.00 0.00 0.00 95 1010.7
20260904080021 60 270 0.0 0.0 0.00 0.00 0.00 95 1010.7
20260904075520 60 270 0.0 0.0 0.00 0.00 0.00 95 1010.7
20260904075019 60 270 0.0 0.0 0.00 0.00 0.00 95 1010.7
20260904074518 60 270 0.0 0.0 0.00 0.00 0.00 94 1010.7
20260904074018 60 270 0.0 0.0 0.00 0.00 0.00 94 1010.7
20260904073519 60 270 0.0 0.0 0.00 0.00 0.00 94 1010.7
20260904073018 59 270 0.0 0.0 0.00 0.00 0.00 94 1010.7
20260904072517 59 270 0.0 0.0 0.00 0.00 0.00 94 1010.8
20260904072016 59 270 0.0 0.0 0.00 0.00 0.00 94 1010.8
20260904071520 59 270 0.0 0.0 0.00 0.00 0.00 94 1010.8
20260904071018 59 270 0.0 0.0 0.00 0.00 0.00 93 1010.6
20260904070514 59 270 0.0 0.0 0.00 0.00 0.00 93 1010.6
20260904070018 59 270 0.0 0.0 0.00 0.00 0.01 93 1010.6
20260904065514 59 270 0.0 0.0 0.00 0.00 0.01 93 1010.6
20260904065014 59 270 0.0 0.0 0.00 0.00 0.01 93 1010.6
20260904064514 59 270 0.0 0.0 0.00 0.00 0.01 93 1010.6
20260904064013 59 270 0.0 0.0 0.00 0.00 0.01 93 1010.6
20260904063512 59 270 0.0 0.0 0.00 0.00 0.01 93 1010.6
20260904063012 59 270 0.0 0.0 0.00 0.00 0.01 93 1010.6
20260904062511 59 270 0.0 0.0 0.00 0.00 0.01 93 1010.4
20260904062015 60 270 0.0 0.0 0.00 0.00 0.01 93 1010.4
20260904061524 60 270 0.0 0.0 0.00 0.00 0.01 93 1010.4
20260904061011 60 270 0.0 0.0 0.00 0.00 0.01 94 1010.5
20260904060510 60 270 0.0 0.0 0.00 0.00 0.01 94 1010.5
20260904060010 61 270 0.0 0.0 0.00 0.00 0.01 95 1010.5
20260904055509 61 270 0.0 0.0 0.00 0.00 0.01 95 1010.5
20260904055009 61 270 0.0 0.0 0.00 0.00 0.01 94 1010.5
20260904054518 61 270 0.0 0.0 0.00 0.00 0.01 94 1010.5
20260904054008 61 270 0.0 0.0 0.00 0.00 0.01 94 1010.4
20260904053508 61 270 0.0 0.0 0.00 0.00 0.01 94 1010.4
20260904053008 61 270 0.0 0.0 0.00 0.00 0.01 94 1010.4
20260904052508 61 270 1.0 0.0 0.00 0.00 0.01 94 1010.4
20260904052009 61 270 1.0 0.0 0.00 0.00 0.01 94 1010.4
20260904051508 61 237 1.0 0.0 0.00 0.00 0.01 94 1010.4
20260904051010 61 237 1.0 0.0 0.00 0.00 0.01 94 1010.7
20260904050507 61 251 0.0 0.0 0.00 0.00 0.01 94 1010.7
20260904050010 61 251 0.0 0.0 0.00 0.00 0.01 94 1010.7
20260904045507 61 251 1.0 0.0 0.00 0.00 0.01 94 1010.6
20260904045011 61 144 1.0 0.0 0.00 0.00 0.01 94 1010.6
20260904044508 62 211 1.0 0.0 0.00 0.00 0.01 94 1010.6
20260904044008 62 200 1.0 0.0 0.00 0.00 0.01 94 1010.5
20260904043506 62 217 1.0 0.0 0.00 0.00 0.01 94 1010.5
20260904043006 62 213 1.0 0.0 0.00 0.00 0.01 94 1010.5
20260904042506 62 229 1.0 0.0 0.00 0.00 0.01 93 1010.5
20260904042007 62 284 1.0 0.0 0.00 0.00 0.01 93 1010.5
20260904041506 62 221 2.0 0.0 0.00 0.00 0.01 93 1010.5
20260904041007 62 284 2.0 0.0 0.00 0.00 0.01 93 1010.6
20260904040507 62 276 2.0 0.0 0.00 0.00 0.01 93 1010.6
20260904040007 62 281 2.0 0.0 0.00 0.00 0.01 93 1010.6
20260904035506 62 325 2.0 0.0 0.00 0.00 0.01 93 1010.5
20260904035005 62 227 2.0 0.0 0.00 0.00 0.01 93 1010.5
20260904034505 62 275 2.0 0.0 0.00 0.00 0.01 93 1010.5
20260904034005 62 263 3.0 0.0 0.00 0.00 0.01 93 1010.2
20260904033505 62 267 2.0 0.0 0.00 0.00 0.01 93 1010.2
20260904033005 62 284 1.0 0.0 0.00 0.00 0.01 93 1010.2
20260904032504 62 166 1.0 0.0 0.00 0.00 0.01 93 1010.1
20260904032004 62 264 1.0 0.0 0.00 0.00 0.01 93 1010.1
20260904031504 62 275 1.0 0.0 0.00 0.00 0.01 93 1010.1
20260904031004 62 259 1.0 0.0 0.00 0.00 0.01 92 1010.1
20260904030504 62 202 2.0 0.0 0.00 0.00 0.01 92 1010.1
20260904030012 63 216 2.0 0.0 0.00 0.00 0.01 92 1010.1
20260904025504 63 154 2.0 0.0 0.00 0.00 0.01 92 1010.0
20260904025004 63 200 1.0 0.0 0.00 0.00 0.01 92 1010.0
20260904024504 63 175 2.0 0.0 0.00 0.00 0.01 92 1010.0
20260904024004 63 185 2.0 0.0 0.00 0.00 0.01 91 1010.0
20260904023504 63 182 2.0 0.0 0.00 0.00 0.01 91 1010.0
20260904023003 63 196 2.0 0.0 0.00 0.00 0.01 91 1010.0
20260904022503 63 171 2.0 0.0 0.00 0.00 0.01 90 1010.0
20260904022004 63 180 2.0 0.0 0.00 0.00 0.01 90 1010.0
20260904021507 64 185 2.0 0.0 0.00 0.00 0.01 89 1010.0
20260904021003 64 161 2.0 0.0 0.00 0.00 0.01 88 1010.1
20260904020506 64 206 1.0 0.0 0.00 0.00 0.01 87 1010.1
20260904020003 64 360 2.0 0.0 0.00 0.00 0.01 87 1010.1
20260904015506 64 182 3.0 0.0 0.00 0.00 0.01 85 1010.2
20260904015002 64 215 2.0 0.0 0.00 0.00 0.01 85 1010.2
20260904014505 65 202 2.0 0.0 0.00 0.00 0.01 85 1010.2
20260904014002 65 197 2.0 0.0 0.00 0.00 0.01 85 1010.1
20260904013501 65 157 3.0 0.0 0.00 0.00 0.01 84 1010.1
20260904013002 65 212 3.0 0.0 0.00 0.00 0.01 83 1010.1
20260904012502 66 227 3.0 0.0 0.00 0.00 0.01 82 1010.1
20260904012002 66 202 3.0 0.0 0.00 0.00 0.01 82 1010.1
20260904011503 67 192 3.0 0.0 0.00 0.00 0.01 82 1010.1
20260904011001 67 163 3.0 0.0 0.00 0.00 0.01 81 1010.0
20260904010503 67 241 3.0 0.0 0.00 0.00 0.01 80 1010.0
20260904010001 68 200 3.0 0.0 0.00 0.00 0.01 80 1010.0
20260904005601 68 205 3.0 0.0 0.00 0.00 0.01 79 1010.1
20260904005100 68 205 3.0 0.0 0.00 0.00 0.01 78 1010.1
20260904004600 68 228 3.0 0.0 0.00 0.00 0.01 79 1010.1
20260904004100 68 360 3.0 0.0 0.00 0.00 0.01 77 1010.2
20260904003559 68 229 4.0 0.0 0.00 0.00 0.01 79 1010.2
20260904003059 68 223 4.0 0.0 0.00 0.00 0.01 78 1010.2
20260904002559 68 233 4.0 0.0 0.00 0.00 0.01 79 1010.3
20260904002059 68 360 5.0 0.0 0.00 0.00 0.01 79 1010.3
20260904001559 68 177 5.0 0.0 0.00 0.00 0.01 79 1010.3
20260904001058 69 203 4.0 0.0 0.00 0.00 0.01 79 1010.3
20260904000601 69 222 4.0 0.0 0.00 0.00 0.01 79 1010.3
20260904000058 69 185 3.0 0.0 0.00 0.00 0.01 79 1010.3
20260903235558 69 142 3.0 0.0 0.00 0.00 0.01 79 1010.4
20260903235057 69 199 4.0 0.0 0.00 0.00 0.01 79 1010.4
20260903234558 70 217 4.0 0.0 0.00 0.00 0.01 79 1010.4
20260903234057 70 216 4.0 0.0 0.00 0.00 0.01 79 1010.4
20260903233556 70 155 3.0 0.0 0.00 0.00 0.01 80 1010.4
20260903233056 69 217 3.0 0.0 0.00 0.00 0.01 81 1010.4
20260903232556 69 150 4.0 0.0 0.00 0.00 0.01 81 1010.5
20260903232056 69 180 5.0 0.0 0.00 0.00 0.01 81 1010.5
20260903231605 69 211 4.0 0.0 0.00 0.00 0.01 80 1010.5
20260903231055 69 177 4.0 0.0 0.00 0.00 0.01 82 1010.6
20260903230555 69 148 4.0 0.0 0.00 0.00 0.01 80 1010.6
20260903230056 69 209 4.0 0.0 0.00 0.00 0.01 79 1010.6
20260903225555 70 150 4.0 0.0 0.00 0.00 0.01 79 1010.7
20260903225054 70 360 4.0 0.0 0.00 0.00 0.01 78 1010.7
20260903224555 70 219 4.0 0.0 0.00 0.00 0.01 80 1010.7
20260903224053 70 360 4.0 0.0 0.00 0.00 0.01 78 1010.9
20260903223554 70 200 4.0 0.0 0.00 0.00 0.01 78 1010.9
20260903223057 70 134 4.0 0.0 0.00 0.00 0.01 79 1010.9
20260903222554 70 202 4.0 0.0 0.00 0.00 0.01 79 1011.1
20260903222053 70 225 4.0 0.0 0.00 0.00 0.01 80 1011.1
20260903221553 70 208 3.0 0.0 0.00 0.00 0.01 80 1011.1
20260903221052 70 129 3.0 0.0 0.00 0.00 0.01 81 1011.2
20260903220552 69 172 3.0 0.0 0.00 0.00 0.01 80 1011.2
20260903220112 69 179 4.0 0.0 0.00 0.00 0.01 80 1011.2
20260903215552 70 172 4.0 0.0 0.00 0.00 0.01 79 1011.2
20260903215050 71 148 3.0 0.0 0.00 0.00 0.01 79 1011.2
20260903214550 71 213 4.0 0.0 0.00 0.00 0.01 80 1011.2
20260903214050 71 190 4.0 0.0 0.00 0.00 0.01 79 1011.2
20260903213552 71 201 3.0 0.0 0.00 0.00 0.01 78 1011.2
20260903213050 71 238 4.0 0.0 0.00 0.00 0.01 79 1011.2
20260903212549 70 240 4.0 0.0 0.00 0.00 0.01 78 1011.3
20260903212050 71 205 3.0 0.0 0.00 0.00 0.01 79 1011.3
20260903211554 70 170 3.0 0.0 0.00 0.00 0.01 80 1011.3
20260903211049 70 229 3.0 0.0 0.00 0.00 0.01 82 1011.4
20260903210548 70 167 3.0 0.0 0.00 0.00 0.01 81 1011.4
20260903210048 70 269 3.0 0.0 0.00 0.00 0.01 81 1011.4
20260903205547 70 232 3.0 0.0 0.00 0.00 0.01 81 1011.5
20260903205051 70 214 4.0 0.0 0.00 0.00 0.01 82 1011.5
20260903204547 70 169 4.0 0.0 0.00 0.00 0.01 82 1011.5
20260903204045 69 159 3.0 0.0 0.00 0.00 0.01 81 1011.6
20260903203545 69 217 3.0 0.0 0.00 0.00 0.01 82 1011.6
20260903203045 69 209 4.0 0.0 0.00 0.00 0.01 81 1011.6
20260903202546 69 183 4.0 0.0 0.00 0.00 0.01 82 1011.7
20260903202045 69 132 4.0 0.0 0.00 0.00 0.01 82 1011.7
20260903201545 69 162 4.0 0.0 0.00 0.00 0.01 82 1011.7
20260903201044 69 217 4.0 0.0 0.00 0.00 0.01 81 1011.8
20260903200547 70 178 3.0 0.0 0.00 0.00 0.01 80 1011.8
20260903200045 70 178 3.0 0.0 0.00 0.00 0.01 81 1011.8
20260903195544 70 219 4.0 0.0 0.00 0.00 0.01 80 1011.9
20260903195044 70 146 4.0 0.0 0.00 0.00 0.01 80 1011.9
20260903194543 70 155 4.0 0.0 0.00 0.00 0.01 79 1011.9
20260903194046 70 190 4.0 0.0 0.00 0.00 0.01 80 1012.0
20260903193542 70 183 4.0 0.0 0.00 0.00 0.01 80 1012.0
20260903193042 70 213 4.0 0.0 0.00 0.00 0.01 79 1012.0
20260903192542 70 163 3.0 0.0 0.00 0.00 0.01 79 1012.2
20260903192044 71 168 4.0 0.0 0.00 0.00 0.01 79 1012.2
20260903191551 71 151 4.0 0.0 0.00 0.00 0.01 79 1012.2
20260903191041 71 168 3.0 0.0 0.00 0.00 0.01 78 1012.4
20260903190541 71 168 3.0 0.0 0.00 0.00 0.01 78 1012.4
20260903190041 71 181 3.0 0.0 0.00 0.00 0.01 78 1012.4